Regional Weather Roundup
Issued by NWS Charleston, SC

Home | Current Version | Previous Version | Text Only | Print | Product List | Glossary On
Versions: 1 2 3 4 5 6 7 8 9 10 11 12 13 14 15 16 17 18 19 20 21 22 23 24 25 26 27 28 29 30 31 32 33 34 35 36 37 38 39 40 41 42 43 44 45 46 47 48 49 50
000
ASUS42 KCHS 240310
RWRCHS
REGIONAL WEATHER ROUNDUP
NATIONAL WEATHER SERVICE CHARLESTON SC
1000 PM EST SUN NOV 23 2014

NOTE: "FAIR" INDICATES FEW OR NO CLOUDS BELOW 12,000 FEET WITH NO
SIGNIFICANT WEATHER AND/OR OBSTRUCTIONS TO VISIBILITY.

NOT ALL STATIONS ARE QUALITY CONTROLLED BY THE NATIONAL
WEATHER SERVICE. USE DATA WITH CAUTION...ESPECIALLY
DEWPOINT OBSERVATIONS.

SCZ027-030-031-034>040-042>050-240400-
...SOUTHEAST SOUTH CAROLINA...

CITY           SKY/WX    TMP DP  RH WIND       PRES   REMARKS
N CHARLESTON   CLOUDY    71  69  93 SW14G21   29.87S THUNDER
WATERFRONT PRK   N/A     70 N/A N/A SW17G23     N/A
MOUNT PLEASANT FAIR      73  73 100 SW16G25   29.87S
JOHNS ISLAND   MOCLDY    70  70 100 SW15G24   29.88S FOG
PINOPOLIS      NOT AVBL
MONCKS CORNER  TSTM      72  72 100 W5        29.89R
SUMMERVILLE    TSTM      68  68 100 SW12G18   29.90R
BEAUFORT MCAS  LGT RAIN  68  66  93 SW5       29.87F
BEAUFORT ARPT  DRIZZLE   68  68 100 W9G18     29.89R
HILTON HEAD IS LGT RAIN  70  68  94 W5        29.89F
WALTERBORO     RAIN      68 N/A N/A SW7       29.88F
ALLENDALE      FAIR      66  66 100 S7G13     29.81F

...SOUTHERN MIDLANDS AND PEE DEE...

CITY           SKY/WX    TMP DP  RH WIND       PRES   REMARKS
GEORGETOWN     NOT AVBL
KINGSTREE      NOT AVBL
ORANGEBURG     CLOUDY    65  61  87 S10       29.82F
BARNWELL       CLOUDY    66  64  94 S6        29.82S
AIKEN          FAIR      64  64 100 S7        29.82S
MANNING        NOT AVBL
COLUMBIA       CLOUDY    67  62  84 SW8       29.78R
SUMTER         LGT RAIN  67  64  89 SW20G29   29.77F
FLORENCE       RAIN      69  65  86 SW14      29.84R
MYRTLE BEACH   RAIN      70  66  88 MISG      29.86R FOG
N MYRTLE BEACH TSTM      69  67  93 S16G23    29.85S VSB 3/4

$$

GAZ063-065-086>088-099>101-113>116-118-119-134>141-150-240400-
...SOUTHEAST GEORGIA...

CITY           SKY/WX    TMP DP  RH WIND       PRES   REMARKS
SAVANNAH ARPT  LGT RAIN  69  64  84 SE7       29.83F
HUNTER AAF     CLOUDY    68  68 100 SE6       29.81F
FORT STEWART   LGT RAIN  66  64  94 SW3       29.85R
STATESBORO     NOT AVBL
SYLVANIA       CLOUDY    66  65  97 S8        29.84R
CLAXTON        MOCLDY    68  68 100 CALM      29.84S

...CSRA...CENTRAL AND FAR SOUTHEAST GEORGIA...

CITY           SKY/WX    TMP DP  RH WIND       PRES   REMARKS
THOMSON        MOCLDY    66  66  99 SW6G17    29.81R
AUGUSTA-BUSH   CLOUDY    65  62  90 S9        29.79R
AUGUSTA-DANIEL CLOUDY    67  62  84 S12       29.79R
SWAINSBORO     CLOUDY    68  68 100 S9        29.83R
VIDALIA        TSTM      66  64  94 S7        29.84R
HAZLEHURST     LGT RAIN  67  67 100 S5        29.84R
ALMA           CLOUDY    66  64  93 S7        29.85S
WAYCROSS       RAIN      69  69  98 W3        29.86F
JESUP          FAIR      70  68  94 SW3       29.88R
BAXLEY         LGT RAIN  68  64  88 SW12      29.85R
BRUNSWICK      CLOUDY    68  64  88 CALM      29.90S
SAINT SIMONS   CLOUDY    67  67 100 CALM      29.90F

$$

SCZ027-028-034-036>038-045-046-048>050-GAZ119-141-240400-
...LAKE AND SUPPLEMENTAL COASTAL OBSERVATIONS...

STATION/POSITION TIME  TEMP    WIND        PRES    WAVE   SWELL
                       AIR SEA DIR/SP/G            HT/PER HT/PER/DIR
                 (UTC) (F)     (DEG/KT/KT) (MB)    (FT/S) (FT/S/D)
UPR LAKE MARION  NOT AVBL
WINYAH BAY       0200   65     140/ 10     1010.0S
LAKE MURRAY      0200   63     200/  7/  9 1008.1F
ACE BASIN NERRS  0200   68     180/  1     1011.0S
FORT PULASKI     0300   66     180/  3/  4 1012.4F
SAPELO ISLAND    NOT AVBL

$$

ANZ835-935-AMZ111-154-330-350-352-354-370-450-454-472-240400-
...C-MAN AND BUOY OBSERVATIONS...

STATION/POSITION TIME  TEMP    WIND        PRES    WAVE   SWELL
                       AIR SEA DIR/SP/G            HT/PER HT/PER/DIR
                 (UTC) (F)     (DEG/KT/KT) (MB)    (FT/S) (FT/S/D)
FOLLY BEACH CMAN 0200   63     230/  9/ 11 1011.8R
BUOY 41004       0300   77 75  210/ 16/ 19 1010.5F  12/ 9  10/ 9
BUOY 41008       0200   68 64  190/ 14/ 17 1012.3R   6/ 9   3/ 90/ 9
CAPERS NEARSHORE 0200   65     200/ 14/ 17   N/A
FRIPP NEARSHORE  NOT AVBL


STATION/POSITION TIME  TEMP    WIND        PRES    WAVE   SWELL
                       AIR SEA DIR/SP/G            HT/PER HT/PER/DIR
                 (UTC) (F)     (DEG/KT/KT) (MB)    (FT/S) (FT/S/D)
5E ST. MARYS GA  0300      60                N/A     6/10   2/110/11
FRYING PAN BUOY  0300   70 67  140/ 27/ 35 1012.1F  15/ 9
BUOY 41025       0300   72     140/ 27/ 31 1014.2F   8/ 6   2/260/11
CAPE LOOKOUT NC  0200   67     140/ 24/ 26 1014.1F
BUOY 41002       NOT AVBL
BUOY 41010       0300   78 78  170/ 19/ 23 1015.3R   9/10   8/120/10
ST AUGUSTINE FL  0300   68     180/  9/ 11 1013.8R


$$


USA.gov is the U.S. government's official web portal to all federal, state and local government web resources and services.